Weather History for Tel Aviv, Israel

Change the Weather History Date:

Thursday, January 2, 2014

  Actual Average Record
Temperature  
Mean Temperature 56 °F -  
Max Temperature 67 °F 61 °F 71 °F (1997)
Min Temperature 45 °F 47 °F 41 °F (2009)
Degree Days  
Heating Degree Days 9    
Growing Degree Days 6 (Base 50)    
Moisture  
Dew Point 46 °F    
Average Humidity 71    
Maximum Humidity 88    
Minimum Humidity 36    
Precipitation  
Precipitation 0.00 in - - ()
Sea Level Pressure  
Sea Level Pressure 30.14 in    
Wind  
Wind Speed 4 mph ()    
Max Wind Speed 12 mph    
Max Gust Speed -    
Visibility 6.1 miles    
Events      
Averages and records for this station are not official NWS values.
T = Trace of Precipitation, MM = Missing Value Source: Averaged Metar Reports

Daily Weather History Graph

Daily Weather History Graph

Search for Another Location

Airport:

Trip Planner

Search our weather history database for the weather conditions in past years. The results will help you decide how hot, cold, wet, or windy it might be!

Date:

Astronomy

Jan. 02, 2014 Rise Set
Actual Time 6:41 AM IST 4:47 PM IST
Civil Twilight 6:14 AM IST 5:14 PM IST
Nautical Twilight 5:43 AM IST 5:45 PM IST
Astronomical Twilight 5:14 AM IST 6:14 PM IST
Moon 7:11 AM IST (1/2) 6:13 PM IST (1/2)
Length of Visible Light 11h 00m
Length of Day
10h 06m
New Moon, 1% of the Moon is Illuminated
Jan 2
New Moon
Jan 8
First Quarter
Jan 16
Full
Jan 24
Last Quarter
Jan 30
New

Hourly Weather History & Observations

Time (IST) Temp. Windchill Dew Point Humidity Pressure Visibility Wind Dir Wind Speed Gust Speed Precip Events Conditions
12:20 AM 50.0 °F - 46.4 °F 87% 30.15 in - Variable 2.3 mph - N/A   Clear
12:50 AM 50.0 °F - 44.6 °F 82% 30.15 in - East 4.6 mph - N/A   Clear
1:20 AM 48.2 °F - 44.6 °F 87% 30.15 in - East 4.6 mph - N/A   Clear
1:50 AM 50.0 °F - 44.6 °F 82% 30.15 in - Variable 3.5 mph - N/A   Clear
2:00 AM 49 °F - 45 °F 80% 30.17 in 6 mi 3.5 mph - -  
2:20 AM 48.2 °F - 44.6 °F 87% 30.15 in - Variable 3.5 mph - N/A   Clear
2:50 AM 48.2 °F - 44.6 °F 87% 30.15 in - Variable 1.2 mph - N/A   Clear
3:20 AM 48.2 °F - 42.8 °F 82% 30.15 in - Variable 3.5 mph - N/A   Clear
3:50 AM 48.2 °F - 42.8 °F 82% 30.15 in - Variable 3.5 mph - N/A   Clear
4:20 AM 48.2 °F - 44.6 °F 87% 30.15 in - Variable 2.3 mph - N/A   Clear
4:50 AM 46.4 °F 45.2 °F 42.8 °F 87% 30.15 in - Variable 3.5 mph - N/A   Clear
5:00 AM 47 °F - 43 °F 81% 30.17 in 6 mi 3.5 mph - -  
5:20 AM 46.4 °F - 41.0 °F 81% 30.15 in - Variable 2.3 mph - N/A   Clear
5:50 AM 44.6 °F - 41.0 °F 87% 30.15 in - Variable 2.3 mph - N/A   Clear
6:20 AM 48.2 °F - 44.6 °F 87% 30.15 in - East 5.8 mph - N/A   Clear
6:50 AM 46.4 °F - 42.8 °F 87% 30.15 in - Variable 2.3 mph - N/A   Clear
7:20 AM 48.2 °F - 42.8 °F 82% 30.18 in - Variable 2.3 mph - N/A   Clear
7:50 AM 48.2 °F - 42.8 °F 82% 30.18 in - Variable 2.3 mph - N/A   Clear
8:00 AM 49 °F - 43 °F 71% 30.19 in 6 mi 2.3 mph - -  
8:20 AM 51.8 °F - 44.6 °F 76% 30.18 in - Variable 2.3 mph - N/A   Clear
8:50 AM 55.4 °F - 44.6 °F 67% 30.18 in - Variable 1.2 mph - N/A   Clear
9:20 AM 57.2 °F - 46.4 °F 67% 30.18 in - Variable 1.2 mph - N/A   Clear
9:50 AM 60.8 °F - 46.4 °F 59% 30.18 in - Variable 1.2 mph - N/A   Clear
10:20 AM 66.2 °F - 46.4 °F 49% 30.15 in - Variable 1.2 mph - N/A   Clear
10:50 AM 66.2 °F - 44.6 °F 46% 30.15 in 6.2 mi Variable 2.3 mph - N/A   Partly Cloudy
11:00 AM 65 °F - 44 °F 36% 30.16 in 6 mi 2.3 mph - -   Scattered Clouds
11:20 AM 66.2 °F - 46.4 °F 49% 30.12 in 6.2 mi Variable 1.2 mph - N/A   Partly Cloudy
11:50 AM 64.4 °F - 48.2 °F 56% 30.12 in 6.2 mi WNW 8.1 mph - N/A   Partly Cloudy
12:20 PM 64.4 °F - 48.2 °F 56% 30.09 in 6.2 mi WNW 9.2 mph - N/A   Partly Cloudy
12:50 PM 64.4 °F - 50.0 °F 59% 30.09 in 6.2 mi WNW 11.5 mph - N/A   Partly Cloudy
1:20 PM 64.4 °F - 50.0 °F 59% 30.09 in 6.2 mi WNW 11.5 mph - N/A   Partly Cloudy
1:50 PM 64.4 °F - 50.0 °F 59% 30.09 in 6.2 mi WNW 11.5 mph - N/A   Partly Cloudy
2:00 PM 64 °F - 50 °F 49% 30.10 in 6 mi WNW 11.5 mph - -   Scattered Clouds
2:20 PM 64.4 °F - 50.0 °F 59% 30.09 in 6.2 mi WNW 10.4 mph - N/A   Partly Cloudy
2:50 PM 64.4 °F - 50.0 °F 59% 30.09 in 6.2 mi WNW 9.2 mph - N/A   Partly Cloudy
3:20 PM 64.4 °F - 48.2 °F 56% 30.09 in 6.2 mi WNW 9.2 mph - N/A   Partly Cloudy
3:50 PM 64.4 °F - 48.2 °F 56% 30.09 in 6.2 mi WNW 6.9 mph - N/A   Partly Cloudy
4:20 PM 64.4 °F - 48.2 °F 56% 30.12 in 6.2 mi West 4.6 mph - N/A   Partly Cloudy
4:50 PM 62.6 °F - 48.2 °F 59% 30.12 in - Variable 2.3 mph - N/A   Clear
5:00 PM 62 °F - 48 °F 49% 30.13 in 6 mi 3.5 mph - -   Mostly Cloudy
5:20 PM 60.8 °F - 50.0 °F 68% 30.12 in - South 4.6 mph - N/A   Clear
5:50 PM 59.0 °F - 50.0 °F 72% 30.12 in - South 5.8 mph - N/A   Clear
6:20 PM 59.0 °F - 50.0 °F 72% 30.12 in - SSE 6.9 mph - N/A   Clear
6:50 PM 59.0 °F - 50.0 °F 72% 30.12 in - SSE 6.9 mph - N/A   Clear
7:20 PM 57.2 °F - 48.2 °F 72% 30.12 in - SE 6.9 mph - N/A   Clear
7:50 PM 57.2 °F - 48.2 °F 72% 30.15 in - ESE 5.8 mph - N/A   Clear
8:00 PM 57 °F - 49 °F 66% 30.15 in 6 mi ESE 5.8 mph - -  
8:20 PM 57.2 °F - 48.2 °F 72% 30.15 in - SE 5.8 mph - N/A   Clear
8:50 PM 55.4 °F - 48.2 °F 77% 30.15 in - Variable 1.2 mph - N/A   Clear
9:20 PM 53.6 °F - 48.2 °F 82% 30.15 in - Variable 2.3 mph - N/A   Clear
9:50 PM 53.6 °F - 48.2 °F 82% 30.15 in - Variable 2.3 mph - N/A   Clear
10:20 PM 51.8 °F - 46.4 °F 82% 30.15 in - Variable 3.5 mph - N/A   Clear
10:50 PM 51.8 °F - 48.2 °F 88% 30.15 in - Variable 2.3 mph - N/A   Clear
11:00 PM 52 °F - 47 °F 79% 30.16 in 6 mi 2.3 mph - -  
11:20 PM 51.8 °F - 48.2 °F 88% 30.15 in - Variable 2.3 mph - N/A   Clear
11:50 PM 50.0 °F - 46.4 °F 87% 30.15 in - Variable 1.2 mph - N/A   Clear